Home > Weather > Heidelberg > Past weeks

Flag for Germany Weather for the Past 2 Weeks in Heidelberg, Baden-Württemberg, Germany

Now
43 °F

Broken clouds.


Feels Like: 38 °F
Forecast: 31 / 43 °F
Wind: 8 mph from West

Location: Mannheim City

Current Time: Feb 11, 2016 at 2:33:31 PM

Latest Report: Feb 11, 2016 at 1:50 PM


Visibility: N/A

Pressure: 29.74 "Hg

Humidity: 76%

Dew point: 36 °F

Location of HeidelbergLocation

Historic Weather in Heidelberg — Graph

°F

Heidelberg Temperature Yesterday

Maximum temperature yesterday: 41 °F (at 1:50 PM)
Minimum temperature yesterday: 37 °F (at 5:20 AM)
Average temperature yesterday: 40 °F

High & Low Weather Summary for the Past Weeks

 TemperatureHumidityPressure
High57 °F (Jan 27, 1:20 PM)100% (Jan 31, 8:50 AM)30.45 "Hg (Jan 31, 8:50 AM)
Low37 °F (Jan 29, 7:50 AM)50% (Jan 29, 1:50 PM)29.09 "Hg (Feb 9, 4:20 PM)
Average47 °F77%29.97 "Hg
* Reported Jan 27 1:20 PM — Feb 11 1:20 PM, Heidelberg, Weather by CustomWeather, © 2016

Note: Actual official high and low records may vary slightly from our data, if they occured in-between our weather recording intervals... More about our weather records

Advertising

Heidelberg Weather History for the Previous 24 Hours

 ConditionsComfort  
Time TempWeatherWind HumidityBarometerVisibility
1:20 PM
Thu, Feb 11
43 °FPartly sunny.9 mph76%29.74 "HgN/A
12:50 PM41 °FDrizzle. Broken clouds.8 mph81%29.74 "HgN/A
12:20 PM39 °FSprinkles. Partly sunny.13 mph81%29.77 "HgN/A
11:50 AM41 °FSprinkles. Partly sunny.10 mph76%29.77 "HgN/A
11:20 AM41 °FOvercast.8 mph76%29.77 "HgN/A
10:50 AM41 °FOvercast.8 mph76%29.77 "HgN/A
10:20 AM41 °FSprinkles. Overcast.8 mph76%29.77 "HgN/A
9:50 AM39 °FOvercast.8 mph81%29.74 "HgN/A
9:20 AM39 °FMore clouds than sun.8 mph81%29.74 "HgN/A
8:50 AM39 °FOvercast.9 mph81%29.74 "HgN/A
8:20 AM39 °FOvercast.7 mph87%29.74 "HgN/A
7:50 AM39 °FOvercast.6 mph87%29.74 "HgN/A
7:20 AM39 °FDrizzle. Overcast.6 mph87%29.71 "HgN/A
6:50 AM39 °FDrizzle. Overcast.7 mph87%29.71 "HgN/A
6:20 AM39 °FDrizzle. Overcast.3 mph87%29.71 "HgN/A
5:50 AM39 °FPartly cloudy.3 mph93%29.71 "HgN/A
8:50 PM
Wed, Feb 10
41 °FPassing clouds.10 mph76%29.56 "HgN/A
8:20 PM41 °FPassing clouds.10 mph76%29.56 "HgN/A
7:50 PM41 °FPassing clouds.8 mph81%29.56 "HgN/A
7:20 PM41 °FPassing clouds.7 mph81%29.56 "HgN/A
6:50 PM41 °FPassing clouds.8 mph81%29.56 "HgN/A
6:20 PM41 °FPassing clouds.8 mph81%29.53 "HgN/A
5:20 PM41 °FPartly sunny.12 mph81%29.50 "HgN/A
4:50 PM41 °FBroken clouds.12 mph81%29.50 "HgN/A
4:20 PM41 °FPartly sunny.10 mph81%29.50 "HgN/A
3:50 PM41 °FOvercast.9 mph81%29.47 "HgN/A
3:20 PM41 °FPartly sunny.10 mph81%29.47 "HgN/A
2:50 PM39 °FPartly sunny.13 mph87%29.47 "HgN/A
2:20 PM39 °FMostly cloudy.14 mph87%29.47 "HgN/A
Weather by CustomWeather, © 2016

See weather overviewHow to use our weather pages